Weather in Samino

Russia / Arkhangel'skaya Oblast'     61°12′56″N   48°21′24″E
temp.,
°C
wind,
m/s
gust,
m/s
humid.,
%
clouds,
%
prec.,
mm/h
press.,
hPa
HPBL,
m
24 september, fri
fri2400:00+8se31175100 0.0 1020397
03:00+8se31179100 0.0 1019402
06:00+8se51381100 0.0 1018760
09:00+8se51386100 0.3 10171122
12:00+8ese51390100 0.8 1016895
15:00+8se41193100 1.6 1016758
18:00+7se41095100 0.2 1016633
21:00+7se3996100 0.4 1015560
25 september, sat
sat2500:00+7se41096100 3.4 1014488
03:00+7se3997100 6.3 1014530
06:00+7se3998100 0.3 1013557
09:00+8se3997100 1.0 1013547
12:00+8se3896100 1.1 1013583
15:00+8sse3997100 2.8 1013584
18:00+8se4996100 0.7 1014606
21:00+7se3896100 0.8 1014502
26 september, sun
sun2600:00+7se3796100 0.4 1013459
03:00+6ese2797100 0.6 1013374
06:00+6ese2797100 0.3 1013346
09:00+7e3795100 0.3 1014372
12:00+8e3695100 0.1 1015536
15:00+7e3694100 0.1 1016475
18:00+7e3896100 0.1 1018455
21:00+7ene3996100 0.4 1019494
27 september, mon
mon2700:00+7e4994100 0.9 1020642
03:00+6e4795100 1.3 1022864
06:00+5ene4897100 0.1 1024777
09:00+4e4895100 0.1 1026662
12:00+6e4683100 0.0 1027702
15:00+7e3577100 0.0 1029865
18:00+6e2481100 0.0 1030123
21:00+2ene228763 0.0 103122
28 september, tue
tue2800:00+1ene118614 0.0 103210
03:000nne1188100 0.0 103210
06:000n1190100 0.0 103311
09:00+4n1274100 0.0 1032254
12:00+8nnw236054 0.0 1032734
15:00+8n3469100 0.0 1032718
18:00+6nnw148551 0.0 1032125
21:00+5nw1190100 0.0 103323